Weather in Chulym

Russia / Novosibirsk Oblast     54°33′47″N   78°19′52″E
temp.,
°C
wind,
m/s
gust,
m/s
humid.,
%
clouds,
%
prec.,
mm/h
press.,
hPa
HPBL,
m
25 february, thu
thu2501:00−24sw4109542 0.0 1013173
04:00−25sw5128859 0.0 1013240
07:00−27ssw5119339 0.0 1015187
10:00−24ssw6129492 0.0 1016476
13:00−21sw7108996 0.1 1016865
16:00−20sw71086100 0.1 10181226
19:00−21sw4992100 0.1 1019562
22:00−23sw4997100 0.1 1020197
26 february, fri
fri2601:00−27wsw4899100 0.1 1021131
04:00−28wsw599898 0.0 1023213
07:00−29wsw5109799 0.1 1027225
10:00−32wsw489776 0.0 1030167
13:00−29wsw589359 0.0 1032331
16:00−27sw589283 0.0 1034413
19:00−29sw469689 0.0 1035103
22:00−30sw469986 0.0 103683
27 february, sat
sat2701:00−31sw459990 0.0 103679
04:00−32sw449988 0.0 103665
07:00−33ssw349977 0.0 103641
10:00−32ssw359875 0.0 1037116
13:00−28ssw359553 0.0 1037239
16:00−25ssw469353 0.0 1036309
19:00−28s349633 0.0 103646
22:00−29s44961 0.0 103666
28 february, sun
sun2801:00−29sse459736 0.0 103576
04:00−29sse479445 0.0 1033101
07:00−26sse599368 0.0 1031184
10:00−22sse61290100 0.0 1029269
13:00−17sse71287100 0.0 1026351
16:00−13sse81393100 0.4 1022603
19:00−10sse71394100 1.9 1018690
22:00−6sse71495100 1.5 1014697
1 march, mon
mon101:00−4ssw71494100 2.4 1011594
04:00−2ssw71396100 1.5 1008714
07:00+1sw71398100 3.4 1007619
10:000sw61298100 0.7 1008514
13:000wsw81291100 1.4 1009896
16:000wsw81190100 0.1 1010801
19:00−2sw61291100 0.2 1012545
22:00−2sw51195100 0.2 1012429